Regional Weather Roundup
Issued by NWS

Home | Current Version | Previous Version | Graphics & Text | Print | Product List | Glossary On
Versions: 1 2 3 4 5 6 7 8 9 10 11 12 13 14 15 16 17 18 19 20 21 22 23 24 25 26 27 28 29 30 31 32 33 34 35 36 37 38 39 40 41 42 43 44 45 46 47 48 49 50
000
ASUS44 KMEG 261000
RWRTN
TENNESSEE HOURLY STATE WEATHER ROUNDUP
NATIONAL WEATHER SERVICE MEMPHIS TN
400 AM CST FRI DEC 26 2014

TNZ002-004-019-021-049-052-054-088>092-261100-
WEST TENNESSEE

CITY           SKY/WX    TMP DP  RH WIND       PRES   REMARKS
MEMPHIS INTL   MOCLDY    43  35  73 S8        30.18S
NWS MEMPHIS      N/A     40 N/A N/A MISG        N/A
JACKSON        CLOUDY    41  34  76 S6        30.21R
DYERSBURG      MOCLDY    39  27  60 S5        30.20S
UNION CITY     CLEAR     36  34  93 SE7       30.16F WCI  30
PARIS          CLEAR     34  32  93 S7        30.20S WCI  28
LEXINGTON      CLEAR     30  30 100 SE3       30.21R
SAVANNAH       CLEAR     37  34  87 S5        30.24R WCI  34
$$

TNZ008-025-027-028-033-062-065-066-261100-
NORTH MIDDLE TENNESSEE

CITY           SKY/WX    TMP DP  RH WIND       PRES   REMARKS
NASHVILLE      PTCLDY    33  31  92 CALM      30.25S
CLARKSVILLE    PTCLDY    32  31  96 SE5       30.23R WCI  27
COOKEVILLE     CLEAR     28  28 100 CALM      30.25R
CROSSVILLE     PTCLDY    30  27  88 CALM      30.24S
$$

TNZ061-075-076-078-094-096-097-261100-
SOUTH MIDDLE TENNESSEE

CITY           SKY/WX    TMP DP  RH WIND       PRES   REMARKS
FAYETTEVILLE   CLEAR     32  30  93 MISG      30.23F
TULLAHOMA      CLEAR     28  27  93 CALM      30.24F
WINCHESTER     CLEAR     28  27  93 CALM      30.25F
SHELBYVILLE    CLEAR     30  30 100 E5        30.25F WCI  25
$$

TNZ017-018-042-046-047-261100-
NORTHEAST TENNESSEE

CITY           SKY/WX    TMP DP  RH WIND       PRES   REMARKS
TRI CITIES     PTCLDY    27  25  92 SE3       30.27R
ELIZABETHTON   SUNNY     27  25  93 CALM      30.26R
$$

TNZ012-013-036-069-073-074-261100-
CENTRAL EAST TENNESSEE

CITY           SKY/WX    TMP DP  RH WIND       PRES   REMARKS
KNOXVILLE      PTCLDY    30  28  92 CALM      30.28R
OAK RIDGE      FOG       30  29  96 CALM      30.30R VSB 1/4
GATLINBURG     SUNNY     25  25 100 CALM      30.28R
$$

TNZ083-085-099-261100-
SOUTHEAST TENNESSEE

CITY           SKY/WX    TMP DP  RH WIND       PRES   REMARKS
CHATTANOOGA    FOG       32  32 100 NE3       30.28F VSB 1/4
$$

SKY/WX REPORTED AS FAIR MEANS FEW OR NO CLOUDS BELOW
12 THOUSAND FEET.




USA.gov is the U.S. government's official web portal to all federal, state and local government web resources and services.